Weather in Proletarskoye

Russia / Chechen Republic     43°23′11″N   45°35′58″E
temp.,
°C
wind,
m/s
gust,
m/s
humid.,
%
clouds,
%
prec.,
mm/h
press.,
hPa
HPBL,
m
16 april, fri
fri1600:00+12w2257100 0.0 101812
03:00+11wnw226352 0.0 101912
06:00+11wsw116842 0.0 102016
09:00+17ne11485 0.1 1020601
12:00+20ne33380 0.0 10181628
15:00+22ene44340 0.0 10171939
18:00+19e47455 0.0 1017315
21:00+14ese37548 0.0 1018134
17 april, sat
sat1700:00+12ese225859 0.0 101815
03:00+12ese126117 0.0 101711
06:00+12se0166100 0.0 101711
09:00+17nw445191 0.0 1018568
12:00+20wnw5542100 0.0 10191238
15:00+21nw664165 0.0 10181607
18:00+17nw7960100 0.0 1020683
21:00+14wnw4671100 0.0 1022602
18 april, sun
sun1800:00+13nw3379100 0.0 1022389
03:00+12n2487100 0.0 1021417
06:00+12nne1286100 0.0 1021275
09:00+15ene2272100 0.0 1020748
12:00+19ene4449100 0.0 10171313
15:00+21e44435 0.0 10151469
18:00+18ene3456100 0.1 1016193
21:00+15se5962100 0.4 1018283
19 april, mon
mon1900:00+13s1170100 0.0 101713
03:00+12e1274100 0.0 101719
06:00+12e2274100 0.0 101756
09:00+17e455295 0.0 1016424
12:00+22e5643100 0.0 1015865
15:00+23e674295 0.0 1014984
18:00+18e5953100 0.0 1014390
21:00+14e395996 0.0 1013206
20 april, tue
tue2000:00+12e4963100 0.0 1011210
03:00+11ese36656 0.0 1009157
06:00+12e2369100 0.0 100892
09:00+17e3457100 0.0 1006245
12:00+22e4647100 0.0 1003504
15:00+24ne43465 0.0 1002538
18:00+20n2360100 0.0 100477
21:00+14wnw131874100 0.1 1010520